GRACE-2

Last updated on Dec. 25, 2017, 12:19 a.m. UTC

1 27392U 02012B   17357.93734954  .20424135 -59216-6  17216-3 0  9996
2 27392  88.9684 292.6153 0002005 198.7136 161.7226 16.52514316887583

Satellite is not in orbit.